{"data":{"norad_id":43633,"epoch":"2026-09-19T09:43:09.223968Z","epoch_age_seconds":108956,"freshness":"FRESH","line1":"1 43633U 18074B   26262.40496787 -.00000034  00000+0  00000+0 0  9998","line2":"2 43633   0.0153 177.3629 0000758 343.4226 152.3337  1.00272377 29283","mean_motion":1.00272377,"eccentricity":7.58e-5,"inclination_deg":0.0153,"raan_deg":177.3629,"arg_perigee_deg":343.4226,"mean_anomaly_deg":152.3337,"bstar":0,"rev_number":2928,"period_min":1436.0884254295,"perigee_km":35783.232928814,"apogee_km":35789.62507702,"semimajor_km":42164.566002917,"source":"CELESTRAK","updated_at":"2026-09-20T09:00:35.524001Z"}}